Voltar ao catálogo

SL-16 DEB

AtivoLEO
NORAD 24866·DEBRIS·🇷🇺 Russia

Lançado Sep 4, 1996 de Baikonur Cosmodrome

Loading…

Próximas Passagens (próximas 24 horas)

TLE

AtualizadoSource: Space-Track

Época: Sep 14, 2026, 10:50 UTC

1 24866U 96051H   26257.45141495 -.00000201  00000-0 -84623-4 0  9994
2 24866  71.1244 163.7385 0060104 141.4523 219.0914 14.10980190545149

Acompanhe SL-16 DEB em tempo real com AllMySat

Download on the App Store